Location: �clusier
(49.9361°N, 2.7869°E)
Time: 08:23:00
(UTC+00:00)

ATLAS CENTAUR R/B - Pass Details

Date: 22 October 2021
Orbit: 452 x 688 km, 64.7° (Epoch: 06 December)

Event Time Altitude Azimuth Distance (km) Brightness Sun altitude
Exits shadow 03:49:48 40° 5° (N) 855 2.3 -25.0°
Drops below altitude 10° 03:52:58 10° 34° (NE) 1,944 4.7 -24.5°
Sets 03:55:23 0° 39° (NE) 2,894 5.8 -24.2°
